sat.trackr.live / text

‹ back to catalog

STARLINK-11174 [DTC]

NORAD 60409 · 2024-141M

PAYLOAD ACTIVE UNKNOWN

§ Identity

Operator
Country
US
Launch date
2024-08-10
Launch site
AFETR
Launch vehicle
Mass (kg)
RCS (m²)

Purposes: comms

External: N2YO · Heavens-Above · Gunter

§ Orbital elements

Epoch: 2026-09-21T05:15:54.047520Z

Period
91.74 min
Inclination
53.1654°
Eccentricity
0.0001424
Mean motion
15.69707387 rev/d
Perigee alt
358.8 km
Apogee alt
360.7 km
Semi-major
6,737.9 km
B*
-8.0065e-7
RAAN
202.3228°
Arg perigee
78.6188°
Mean anomaly
281.4990°
Rev number
12,240

§ Raw data

STARLINK-11174 [DTC]1 60409U 24141M   26264.21937555 -.00000686  00000+0 -80065-6 0  99942 60409  53.1654 202.3228 0001424  78.6188 281.4990 15.69707387122408

JSON: /api/v1/satellites/60409 · /tle

For live sub-satellite position, see the globe view (requires WebGL).

§ Visibility from observer

Set your observer location to see the next 7 days of passes ≥ 10°. The values pass through the URL so the page stays shareable.

No JS? Fill the form by hand. The geolocation button needs JavaScript.